Location: ???????
(55.4362°N, 38.1183°E)
Time: 02:55:11
(UTC+00:00)

Lacrosse 5 rocket - Pass Details

Date: 17 June 2021
Orbit: 459 x 634 km, 57.0° (Epoch: 26 July)

Event Time Altitude Azimuth Distance (km) Brightness Sun altitude
Rises 20:47:14 0° 243° (WSW) 2,506 4.5 -10.7°
Reaches altitude 10° 20:49:23 10° 242° (WSW) 1,618 3.5 -10.7°
Maximum altitude 20:52:59 74° 157° (SSE) 485 0.8 -10.8°
Drops below altitude 10° 20:56:34 10° 73° (ENE) 1,614 3.8 -10.9°
Sets 20:58:43 0° 71° (ENE) 2,498 4.8 -10.9°
